Location: Ammerl�gen
(47.2167°N, 9.6000°E)
Time: 09:12:05
(UTC+00:00)

Iridium 4 Rocket - Pass Details

Date: 07 August 2021
Orbit: 584 x 904 km, 86.9° (Epoch: 18 September)

Event Time Altitude Azimuth Distance (km) Brightness Sun altitude
Rises 23:17:35 0° 6° (N) 3,503 8.2 -26.6°
Reaches altitude 10° 23:20:28 10° 19° (NNE) 2,581 7.1 -26.6°
Maximum altitude 23:25:19 26° 74° (ENE) 1,716 5.4 -26.6°
Enters shadow 23:27:08 22° 102° (ESE) 1,862 5.3 -26.6°
